FGA923 FOOL-LFPG

Flight info

Callsign FGA923
Flight time N/A
Altitude 37000
Route BTA3S BTA UG857 DLA/N0489F380 UA604 AKLIS/N0485F400 UA604 AS UR978 BOD UM998 KAMER DCT NAFOQ DCT SURJU DCT PADKO UN854 MRM UM976 MTL/N0400F180 A3 MOU
Aircraft A359/H-SDE2E3GHIJ3J4J5LM1ORWXY/LB1D1

Departure

Time 2026-04-14 13:47
Airport Libreville Leon M'ba International Airport (FOOL)

Arrival

Time N/A
Airport Charles de Gaulle International Airport (LFPG)
Time Latitude Longitude Altitude Speed Heading
2026-04-14 13:02 0.45713 9.41101 43 ft 0 kts 227°
2026-04-14 13:03 0.45714 9.41101 43 ft 0 kts 227°
2026-04-14 13:35 0.45719 9.41107 43 ft 4 kts 219°
2026-04-14 13:35 0.45738 9.41120 42 ft 2 kts 227°
2026-04-14 13:35 0.45751 9.41139 40 ft 4 kts 264°
2026-04-14 13:35 0.45744 9.41160 38 ft 4 kts 323°
2026-04-14 13:36 0.45721 9.41173 42 ft 4 kts 338°
2026-04-14 13:36 0.45698 9.41183 40 ft 2 kts 334°
2026-04-14 13:36 0.45677 9.41192 39 ft 4 kts 334°
2026-04-14 13:36 0.45665 9.41198 39 ft 1 kts 334°
2026-04-14 13:40 0.45719 9.41172 42 ft 13 kts 334°
2026-04-14 13:41 0.45791 9.41170 42 ft 9 kts 33°
2026-04-14 13:41 0.45851 9.41208 41 ft 11 kts 21°
2026-04-14 13:41 0.45931 9.41197 39 ft 13 kts 329°
2026-04-14 13:41 0.46014 9.41156 40 ft 14 kts 334°
2026-04-14 13:42 0.46105 9.41111 41 ft 15 kts 334°
2026-04-14 13:42 0.46201 9.41063 42 ft 16 kts 334°
2026-04-14 13:42 0.46305 9.41016 43 ft 17 kts 335°
2026-04-14 13:42 0.46414 9.40965 44 ft 18 kts 335°
2026-04-14 13:43 0.46529 9.40913 44 ft 19 kts 335°
2026-04-14 13:43 0.46665 9.40847 43 ft 23 kts 334°
2026-04-14 13:43 0.46812 9.40775 44 ft 24 kts 334°
2026-04-14 13:43 0.46967 9.40699 42 ft 25 kts 329°
2026-04-14 13:44 0.47032 9.40626 42 ft 4 kts 343°
2026-04-14 13:44 0.47040 9.40633 42 ft 1 kts 42°
2026-04-14 13:44 0.47040 9.40635 42 ft 1 kts 58°
2026-04-14 13:44 0.47033 9.40653 42 ft 7 kts 117°
2026-04-14 13:45 0.46989 9.40691 42 ft 0 kts 153°
2026-04-14 13:46 0.46984 9.40693 42 ft 8 kts 153°
2026-04-14 13:46 0.46750 9.40809 44 ft 74 kts 154°
2026-04-14 13:46 0.46060 9.41132 41 ft 142 kts 154°
2026-04-14 13:46 0.45046 9.41623 399 ft 167 kts 155°
2026-04-14 13:47 0.44195 9.42358 1276 ft 163 kts 124°
2026-04-14 13:47 0.43864 9.43484 1625 ft 184 kts 94°
2026-04-14 13:47 0.44250 9.44811 1657 ft 215 kts 60°
2026-04-14 13:47 0.45142 9.46068 1980 ft 226 kts 58°
2026-04-14 13:48 0.45834 9.47522 2320 ft 238 kts 73°
2026-04-14 13:48 0.46281 9.49167 2599 ft 253 kts 80°
2026-04-14 13:48 0.46614 9.50931 2999 ft 262 kts 80°
2026-04-14 13:48 0.46976 9.52732 3543 ft 266 kts 80°
2026-04-14 13:49 0.47349 9.54552 4137 ft 268 kts 79°
2026-04-14 13:49 0.47716 9.56375 4708 ft 269 kts 79°
2026-04-14 13:49 0.48333 9.58150 5248 ft 273 kts 61°
2026-04-14 13:49 0.49624 9.59521 5835 ft 275 kts 33°
2026-04-14 13:50 0.51414 9.60182 6427 ft 277 kts 12°
2026-04-14 13:50 0.53323 9.60476 6946 ft 278 kts 10°
2026-04-14 13:50 0.55247 9.60739 7464 ft 280 kts 11°
2026-04-14 13:50 0.57053 9.60993 7960 ft 281 kts 11°
2026-04-14 13:51 0.59070 9.61290 8426 ft 286 kts 12°
2026-04-14 13:51 0.61025 9.61576 9083 ft 283 kts 12°
2026-04-14 13:51 0.62969 9.61862 9714 ft 282 kts 13°
2026-04-14 13:51 0.64926 9.62153 10112 ft 288 kts 13°
2026-04-14 13:52 0.66949 9.62457 10346 ft 301 kts 13°
2026-04-14 13:52 0.69054 9.62777 10558 ft 313 kts 13°
2026-04-14 13:52 0.71252 9.63107 10773 ft 325 kts 12°
2026-04-14 13:52 0.73521 9.63445 10989 ft 335 kts 12°
2026-04-14 13:53 0.75864 9.63793 11199 ft 345 kts 12°
2026-04-14 13:53 0.78267 9.64151 11451 ft 353 kts 12°
2026-04-14 13:53 0.80711 9.64515 11797 ft 357 kts 12°
2026-04-14 13:53 0.83173 9.64881 12183 ft 360 kts 11°
2026-04-14 13:54 0.85661 9.65251 12560 ft 362 kts 11°
2026-04-14 13:54 0.88163 9.65627 12948 ft 364 kts 11°
2026-04-14 13:54 0.90676 9.66003 13340 ft 366 kts 11°
2026-04-14 13:54 0.93206 9.66380 13704 ft 369 kts 11°
2026-04-14 13:55 0.95752 9.66759 14026 ft 371 kts 11°
2026-04-14 13:55 0.98313 9.67141 14334 ft 374 kts 11°
2026-04-14 13:55 1.00899 9.67528 14627 ft 377 kts 11°
2026-04-14 13:55 1.03498 9.67916 14949 ft 379 kts 11°
2026-04-14 13:56 1.06115 9.68307 15269 ft 382 kts 11°
2026-04-14 13:56 1.08751 9.68701 15583 ft 384 kts 11°
2026-04-14 13:56 1.11403 9.69098 15891 ft 387 kts 11°
2026-04-14 13:56 1.14070 9.69497 16207 ft 389 kts 11°
2026-04-14 13:57 1.16760 9.69899 16504 ft 392 kts 11°
2026-04-14 13:57 1.19468 9.70304 16825 ft 394 kts 11°
2026-04-14 13:57 1.22188 9.70711 17146 ft 397 kts 11°
2026-04-14 13:57 1.24924 9.71120 17455 ft 399 kts 11°
2026-04-14 13:58 1.27683 9.71532 17764 ft 402 kts 11°
2026-04-14 13:58 1.30446 9.71946 17851 ft 403 kts 11°
2026-04-14 13:58 1.33231 9.72362 18011 ft 406 kts 11°
2026-04-14 13:58 1.36028 9.72780 18319 ft 407 kts 11°
2026-04-14 13:59 1.38792 9.73194 18604 ft 408 kts 11°
2026-04-14 13:59 1.41643 9.73620 18894 ft 409 kts 11°
2026-04-14 13:59 1.44429 9.74037 19166 ft 411 kts 11°
2026-04-14 13:59 1.47264 9.74461 19440 ft 412 kts 11°
2026-04-14 14:00 1.50111 9.74887 19708 ft 414 kts 11°
2026-04-14 14:00 1.52961 9.75313 19984 ft 415 kts 11°
2026-04-14 14:00 1.55825 9.75741 20228 ft 417 kts 11°
2026-04-14 14:00 1.58695 9.76171 20498 ft 418 kts 11°
2026-04-14 14:01 1.61574 9.76602 20757 ft 420 kts 11°
2026-04-14 14:01 1.64472 9.77035 21019 ft 421 kts 11°
2026-04-14 14:01 1.67372 9.77469 21265 ft 423 kts 11°
2026-04-14 14:01 1.70294 9.77906 21516 ft 424 kts 11°
2026-04-14 14:02 1.73216 9.78343 21770 ft 426 kts 11°
2026-04-14 14:02 1.76152 9.78783 21997 ft 427 kts 11°
2026-04-14 14:02 1.79096 9.79223 22234 ft 428 kts 11°
2026-04-14 14:02 1.82049 9.79665 22468 ft 430 kts 11°
2026-04-14 14:03 1.85010 9.80108 22694 ft 431 kts 11°
2026-04-14 14:03 1.87987 9.80551 22919 ft 433 kts 11°
2026-04-14 14:03 1.90990 9.80823 23171 ft 436 kts
2026-04-14 14:03 1.94033 9.80853 23404 ft 438 kts
2026-04-14 14:04 1.97078 9.80785 23566 ft 440 kts
2026-04-14 14:04 2.00147 9.80672 23747 ft 442 kts
2026-04-14 14:04 2.03224 9.80545 23917 ft 443 kts
2026-04-14 14:04 2.06306 9.80422 24101 ft 444 kts
2026-04-14 14:05 2.09399 9.80307 24272 ft 445 kts
2026-04-14 14:05 2.12499 9.80199 24446 ft 446 kts
2026-04-14 14:05 2.15602 9.80098 24617 ft 447 kts
2026-04-14 14:05 2.18720 9.80000 24796 ft 448 kts
2026-04-14 14:06 2.21837 9.79904 24954 ft 450 kts
2026-04-14 14:06 2.24976 9.79807 25124 ft 451 kts
2026-04-14 14:06 2.28110 9.79710 25314 ft 451 kts
2026-04-14 14:06 2.31251 9.79613 25490 ft 452 kts
2026-04-14 14:07 2.34398 9.79515 25651 ft 454 kts
2026-04-14 14:07 2.37559 9.79416 25822 ft 455 kts
2026-04-14 14:07 2.40725 9.79317 25999 ft 456 kts
2026-04-14 14:07 2.43906 9.79218 26165 ft 457 kts
2026-04-14 14:08 2.47083 9.79118 26342 ft 458 kts
2026-04-14 14:08 2.50279 9.79018 26504 ft 459 kts
2026-04-14 14:08 2.53473 9.78919 26676 ft 461 kts
2026-04-14 14:08 2.56680 9.78818 26851 ft 462 kts
2026-04-14 14:09 2.59896 9.78718 27021 ft 463 kts
2026-04-14 14:09 2.63118 9.78617 27194 ft 464 kts
2026-04-14 14:09 2.66353 9.78516 27366 ft 465 kts
2026-04-14 14:09 2.69593 9.78414 27543 ft 467 kts
2026-04-14 14:10 2.72842 9.78313 27716 ft 468 kts
2026-04-14 14:10 2.76056 9.78212 27890 ft 469 kts
2026-04-14 14:10 2.79369 9.78109 28072 ft 470 kts
2026-04-14 14:10 2.82641 9.78006 28253 ft 472 kts
2026-04-14 14:11 2.85883 9.77905 28422 ft 473 kts
2026-04-14 14:11 2.89174 9.77802 28592 ft 474 kts
2026-04-14 14:11 2.92474 9.77699 28763 ft 475 kts
2026-04-14 14:11 2.95786 9.77595 28935 ft 477 kts
2026-04-14 14:12 2.99107 9.77491 29109 ft 478 kts
2026-04-14 14:12 3.02436 9.77387 29257 ft 479 kts
2026-04-14 14:12 3.05779 9.77282 29431 ft 481 kts
2026-04-14 14:12 3.09128 9.77178 29614 ft 482 kts
2026-04-14 14:13 3.12487 9.77073 29795 ft 484 kts
2026-04-14 14:13 3.15856 9.76967 29958 ft 485 kts
2026-04-14 14:13 3.19233 9.76861 30110 ft 486 kts
2026-04-14 14:13 3.22619 9.76755 30263 ft 488 kts
2026-04-14 14:14 3.26016 9.76649 30422 ft 489 kts
2026-04-14 14:14 3.29418 9.76542 30573 ft 490 kts
2026-04-14 14:14 3.32830 9.76435 30733 ft 491 kts
2026-04-14 14:14 3.36254 9.76328 30883 ft 493 kts
2026-04-14 14:15 3.39687 9.76220 31054 ft 494 kts
2026-04-14 14:15 3.43127 9.76112 31210 ft 495 kts
2026-04-14 14:15 3.46576 9.76004 31357 ft 496 kts
2026-04-14 14:15 3.50031 9.75896 31501 ft 498 kts
2026-04-14 14:16 3.53493 9.75788 31650 ft 499 kts
2026-04-14 14:16 3.56965 9.75679 31796 ft 500 kts
2026-04-14 14:16 3.60450 9.75569 31936 ft 501 kts
2026-04-14 14:17 3.67434 9.75350 32209 ft 503 kts
2026-04-14 14:17 3.70937 9.75240 32342 ft 504 kts
2026-04-14 14:17 3.74454 9.75130 32469 ft 505 kts
2026-04-14 14:17 3.77968 9.75020 32593 ft 506 kts
2026-04-14 14:18 3.81498 9.74910 32720 ft 507 kts
2026-04-14 14:18 3.85023 9.74799 32842 ft 508 kts
2026-04-14 14:18 3.88553 9.74688 33015 ft 508 kts
2026-04-14 14:18 3.92098 9.74577 33203 ft 508 kts
2026-04-14 14:19 3.95632 9.74460 33398 ft 508 kts 360°
2026-04-14 14:19 3.99149 9.74062 33569 ft 510 kts 351°
2026-04-14 14:19 4.02596 9.73168 33769 ft 512 kts 345°
2026-04-14 14:19 4.05983 9.72072 33940 ft 512 kts 343°
2026-04-14 14:20 4.09352 9.70906 34137 ft 512 kts 342°
2026-04-14 14:20 4.12712 9.69707 34334 ft 511 kts 342°
2026-04-14 14:20 4.16054 9.68503 34557 ft 510 kts 342°
2026-04-14 14:20 4.19391 9.67303 34822 ft 508 kts 342°
2026-04-14 14:21 4.22715 9.66113 35059 ft 507 kts 342°
2026-04-14 14:21 4.26034 9.64931 35254 ft 507 kts 342°
2026-04-14 14:21 4.29357 9.63752 35484 ft 506 kts 342°
2026-04-14 14:21 4.32678 9.62576 35711 ft 505 kts 342°
2026-04-14 14:22 4.35989 9.61405 35935 ft 504 kts 342°
2026-04-14 14:22 4.39298 9.60235 36135 ft 504 kts 342°
2026-04-14 14:22 4.42603 9.59067 36356 ft 503 kts 342°
2026-04-14 14:22 4.45902 9.57899 36591 ft 502 kts 342°
2026-04-14 14:23 4.49229 9.56836 36767 ft 501 kts 348°
2026-04-14 14:23 4.52572 9.56022 36824 ft 501 kts 348°
2026-04-14 14:23 4.59351 9.54513 36826 ft 498 kts 349°
2026-04-14 14:24 4.66125 9.53062 36842 ft 498 kts 349°
2026-04-14 14:24 4.72895 9.51608 36842 ft 498 kts 349°
2026-04-14 14:25 4.79671 9.50143 36844 ft 498 kts 349°
2026-04-14 14:25 4.86443 9.48674 36853 ft 498 kts 349°
2026-04-14 14:26 4.93218 9.47203 36857 ft 498 kts 349°
2026-04-14 14:26 5.00000 9.45731 36854 ft 499 kts 349°
2026-04-14 14:27 5.06796 9.44256 36856 ft 501 kts 349°
2026-04-14 14:27 5.13612 9.42777 36848 ft 501 kts 349°
2026-04-14 14:28 5.20428 9.41295 36847 ft 501 kts 349°
2026-04-14 14:28 5.27241 9.39816 36828 ft 501 kts 349°
2026-04-14 14:29 5.34058 9.38336 36824 ft 501 kts 349°
2026-04-14 14:29 5.39731 9.37103 36827 ft 502 kts 349°
2026-04-14 14:30 5.46547 9.35622 36815 ft 501 kts 349°
2026-04-14 14:30 5.53367 9.34139 36816 ft 501 kts 349°
2026-04-14 14:31 5.60186 9.32657 36807 ft 502 kts 348°
2026-04-14 14:31 5.67009 9.31173 36806 ft 502 kts 348°
2026-04-14 14:32 5.73893 9.30023 36805 ft 501 kts 353°
2026-04-14 14:32 5.80835 9.29182 36805 ft 502 kts 354°
2026-04-14 14:33 5.87768 9.28387 36807 ft 502 kts 354°
2026-04-14 14:33 5.94705 9.27591 36808 ft 502 kts 354°
2026-04-14 14:34 6.05118 9.26385 36813 ft 502 kts 353°
2026-04-14 14:35 6.12055 9.25578 36812 ft 502 kts 353°
2026-04-14 14:35 6.18991 9.24781 36814 ft 502 kts 354°
2026-04-14 14:36 6.25967 9.24280 36814 ft 502 kts 357°
2026-04-14 14:36 6.32948 9.23904 36796 ft 502 kts 357°
2026-04-14 14:37 6.39921 9.23490 36791 ft 502 kts 356°
2026-04-14 14:37 6.46909 9.23038 36793 ft 504 kts 356°
2026-04-14 14:38 6.53906 9.22574 36792 ft 504 kts 356°
2026-04-14 14:38 6.60910 9.22110 36781 ft 504 kts 356°
2026-04-14 14:39 6.67897 9.21649 36775 ft 508 kts 356°
2026-04-14 14:39 6.74929 9.21185 36782 ft 505 kts 356°
2026-04-14 14:40 6.81928 9.20724 36772 ft 504 kts 355°
2026-04-14 14:40 6.88923 9.20262 36774 ft 504 kts 355°
2026-04-14 14:41 6.95916 9.19800 36765 ft 503 kts 355°
2026-04-14 14:41 7.02919 9.19337 36763 ft 504 kts 355°
2026-04-14 14:42 7.09913 9.18874 36756 ft 504 kts 355°
2026-04-14 14:42 7.16874 9.18056 36755 ft 503 kts 351°
2026-04-14 14:43 7.23799 9.17001 36750 ft 503 kts 351°
2026-04-14 14:43 7.30737 9.15986 36751 ft 503 kts 351°
2026-04-14 14:44 7.37675 9.15028 36753 ft 503 kts 352°
2026-04-14 14:44 7.44605 9.14090 36749 ft 504 kts 351°
2026-04-14 14:45 7.51555 9.13150 36746 ft 503 kts 351°
2026-04-14 14:45 7.58493 9.12208 36749 ft 502 kts 352°
2026-04-14 14:46 7.65416 9.11267 36741 ft 502 kts 352°
2026-04-14 14:46 7.72338 9.10326 36744 ft 502 kts 352°
2026-04-14 14:47 7.79260 9.09384 36744 ft 502 kts 352°
2026-04-14 14:47 7.86181 9.08442 36747 ft 502 kts 352°
2026-04-14 14:48 7.93109 9.07499 36748 ft 503 kts 351°
2026-04-14 14:48 8.00052 9.06554 36744 ft 504 kts 351°
2026-04-14 14:49 8.06946 9.05614 36744 ft 504 kts 351°
2026-04-14 14:49 8.13942 9.04686 36742 ft 504 kts 352°
2026-04-14 14:50 8.20866 9.03866 36740 ft 504 kts 352°
2026-04-14 14:50 8.27828 9.03054 36744 ft 503 kts 352°
2026-04-14 14:51 8.34779 9.02226 36745 ft 503 kts 352°
2026-04-14 14:51 8.41723 9.01376 36745 ft 503 kts 351°
2026-04-14 14:52 8.48665 9.00465 36745 ft 502 kts 350°
2026-04-14 14:52 8.55589 8.99472 36741 ft 502 kts 351°
2026-04-14 14:53 8.62508 8.98486 36739 ft 503 kts 351°
2026-04-14 14:53 8.69426 8.97516 36744 ft 502 kts 350°
2026-04-14 14:54 8.76353 8.96551 36745 ft 502 kts 351°
2026-04-14 14:54 8.83277 8.95587 36749 ft 502 kts 351°
2026-04-14 14:55 8.90197 8.94623 36770 ft 502 kts 351°
2026-04-14 14:55 8.97107 8.93659 36775 ft 502 kts 350°
2026-04-14 14:56 9.07495 8.92209 36796 ft 503 kts 351°
2026-04-14 14:56 9.14419 8.91242 36813 ft 503 kts 351°
2026-04-14 14:57 9.21357 8.90273 36821 ft 503 kts 351°
2026-04-14 14:57 9.28292 8.89304 36840 ft 503 kts 351°
2026-04-14 14:58 9.35219 8.88336 36840 ft 503 kts 351°
2026-04-14 14:58 9.42143 8.87367 36843 ft 502 kts 351°
2026-04-14 14:59 9.49062 8.86400 36853 ft 502 kts 351°
2026-04-14 14:59 9.55984 8.85431 36852 ft 502 kts 351°
2026-04-14 15:00 9.62906 8.84462 36853 ft 502 kts 351°
2026-04-14 15:00 9.69839 8.83558 36851 ft 502 kts 352°
2026-04-14 15:01 9.76784 8.82803 36846 ft 502 kts 352°
2026-04-14 15:01 9.83719 8.82053 36843 ft 501 kts 352°
2026-04-14 15:02 9.90609 8.81283 36824 ft 501 kts 352°
2026-04-14 15:02 9.97525 8.80498 36825 ft 501 kts 352°
2026-04-14 15:03 10.04508 8.79702 36813 ft 501 kts 352°
2026-04-14 15:03 10.07920 8.79313 38517 ft 501 kts 353°
2026-04-14 15:03 10.11398 8.78917 36723 ft 504 kts 351°
2026-04-14 15:04 10.18354 8.78125 36782 ft 501 kts 351°
2026-04-14 15:04 10.25277 8.77338 36782 ft 500 kts 351°
2026-04-14 15:05 10.32183 8.76551 36763 ft 500 kts 351°
2026-04-14 15:05 10.39092 8.75763 36771 ft 500 kts 351°
2026-04-14 15:06 10.46005 8.74975 36761 ft 500 kts 351°
2026-04-14 15:06 10.52905 8.74188 36751 ft 499 kts 351°
2026-04-14 15:07 10.59819 8.73400 36750 ft 499 kts 351°
2026-04-14 15:07 10.66723 8.72612 36734 ft 499 kts 351°
2026-04-14 15:08 10.73624 8.71824 36727 ft 499 kts 351°
2026-04-14 15:08 10.80544 8.71033 36719 ft 501 kts 351°
2026-04-14 15:09 10.87489 8.70239 36719 ft 502 kts 351°
2026-04-14 15:09 10.94406 8.69282 36707 ft 501 kts 347°
2026-04-14 15:10 11.01246 8.67988 36708 ft 500 kts 346°
2026-04-14 15:10 11.08100 8.66683 36710 ft 501 kts 347°
2026-04-14 15:11 11.14950 8.65435 36712 ft 501 kts 347°
2026-04-14 15:11 11.21820 8.64212 36700 ft 501 kts 347°
2026-04-14 15:12 11.28689 8.62992 36700 ft 501 kts 347°
2026-04-14 15:12 11.35511 8.61777 36701 ft 501 kts 347°
2026-04-14 15:13 11.42376 8.60553 36701 ft 501 kts 347°
2026-04-14 15:13 11.49248 8.59327 36693 ft 501 kts 347°
2026-04-14 15:14 11.56116 8.58101 36693 ft 501 kts 347°
2026-04-14 15:14 11.61860 8.57075 36693 ft 500 kts 347°
2026-04-14 15:15 11.68700 8.55853 36691 ft 499 kts 347°
2026-04-14 15:15 11.75551 8.54627 36693 ft 499 kts 347°
2026-04-14 15:16 11.82395 8.53403 36690 ft 499 kts 347°
2026-04-14 15:16 11.89244 8.52177 36686 ft 499 kts 347°
2026-04-14 15:17 11.96083 8.50953 36676 ft 499 kts 346°
2026-04-14 15:17 12.02913 8.49730 36675 ft 498 kts 346°
2026-04-14 15:18 12.09804 8.48763 36680 ft 501 kts 351°
2026-04-14 15:18 12.16749 8.48188 36679 ft 501 kts 352°
2026-04-14 15:19 12.23650 8.47608 36682 ft 501 kts 351°
2026-04-14 15:19 12.30597 8.46954 36682 ft 501 kts 351°
2026-04-14 15:20 12.37544 8.46268 36683 ft 502 kts 351°
2026-04-14 15:20 12.44504 8.45576 36684 ft 502 kts 351°
2026-04-14 15:21 12.51461 8.44887 36681 ft 502 kts 351°
2026-04-14 15:21 12.58421 8.44199 36679 ft 502 kts 351°
2026-04-14 15:22 12.65373 8.43512 36684 ft 502 kts 351°
2026-04-14 15:22 12.72345 8.42823 36682 ft 503 kts 351°
2026-04-14 15:23 12.79312 8.42134 36679 ft 503 kts 351°
2026-04-14 15:23 12.86281 8.41446 36682 ft 503 kts 351°
2026-04-14 15:24 12.93239 8.40753 36676 ft 503 kts 351°
2026-04-14 15:24 13.00205 8.40059 36677 ft 503 kts 351°
2026-04-14 15:25 13.07174 8.39366 36675 ft 503 kts 351°
2026-04-14 15:25 13.14148 8.38690 36675 ft 504 kts 351°
2026-04-14 15:26 13.21130 8.38046 36674 ft 504 kts 351°
2026-04-14 15:26 13.28118 8.37402 36672 ft 504 kts 351°
2026-04-14 15:27 13.35099 8.36753 36672 ft 504 kts 351°
2026-04-14 15:27 13.42079 8.36100 36677 ft 504 kts 351°
2026-04-14 15:28 13.49059 8.35447 36674 ft 504 kts 351°
2026-04-14 15:28 13.56050 8.34792 36672 ft 504 kts 351°
2026-04-14 15:29 13.63043 8.34137 36677 ft 504 kts 351°
2026-04-14 15:29 13.70036 8.33482 36672 ft 505 kts 351°
2026-04-14 15:30 13.77028 8.32828 36674 ft 505 kts 351°
2026-04-14 15:30 13.84033 8.32172 36677 ft 505 kts 351°
2026-04-14 15:31 13.91035 8.31511 36673 ft 505 kts 351°
2026-04-14 15:31 13.98038 8.30850 36673 ft 505 kts 351°
2026-04-14 15:32 14.05040 8.30190 36674 ft 505 kts 351°
2026-04-14 15:32 14.12044 8.29530 36670 ft 505 kts 351°
2026-04-14 15:33 14.19044 8.28869 36672 ft 505 kts 351°
2026-04-14 15:33 14.25992 8.28214 36675 ft 505 kts 351°
2026-04-14 15:34 14.32989 8.27553 36670 ft 505 kts 351°
2026-04-14 15:34 14.39986 8.26891 36675 ft 505 kts 351°
2026-04-14 15:35 14.46984 8.26229 36672 ft 505 kts 351°
2026-04-14 15:35 14.53979 8.25567 36679 ft 505 kts 351°
2026-04-14 15:36 14.60973 8.24905 36678 ft 505 kts 351°
2026-04-14 15:36 14.67970 8.24242 36678 ft 505 kts 351°
2026-04-14 15:37 14.74955 8.23580 36676 ft 505 kts 351°
2026-04-14 15:37 14.81929 8.22921 36696 ft 498 kts 350°
2026-04-14 15:38 14.88746 8.22279 36702 ft 488 kts 350°
2026-04-14 15:38 14.95489 8.21637 36697 ft 486 kts 350°
2026-04-14 15:39 15.02228 8.20992 36698 ft 486 kts 350°
2026-04-14 15:39 15.08969 8.20350 36697 ft 487 kts 350°
2026-04-14 15:40 15.15715 8.19711 36708 ft 486 kts 349°
2026-04-14 15:40 15.22442 8.19075 36701 ft 485 kts 349°
2026-04-14 15:41 15.29164 8.18437 36704 ft 485 kts 349°
2026-04-14 15:41 15.35885 8.17798 36706 ft 485 kts 349°
2026-04-14 15:42 15.42605 8.17159 36707 ft 485 kts 349°
2026-04-14 15:42 15.49326 8.16520 36714 ft 485 kts 349°
2026-04-14 15:43 15.56051 8.15880 36709 ft 486 kts 349°
2026-04-14 15:43 15.62789 8.15239 36710 ft 486 kts 349°
2026-04-14 15:44 15.69530 8.14597 36713 ft 486 kts 349°
2026-04-14 15:44 15.76262 8.13956 36707 ft 486 kts 349°
2026-04-14 15:45 15.82958 8.13317 36717 ft 486 kts 349°
2026-04-14 15:45 15.89708 8.12672 36709 ft 489 kts 349°
2026-04-14 15:46 15.96491 8.12023 36711 ft 490 kts 349°
2026-04-14 15:46 16.03276 8.11376 36721 ft 490 kts 349°
2026-04-14 15:47 16.10077 8.10726 36721 ft 490 kts 349°
2026-04-14 15:47 16.13471 8.10401 38400 ft 490 kts 351°
2026-04-14 15:47 16.16883 8.10074 36669 ft 494 kts 349°
2026-04-14 15:48 16.23740 8.09417 36713 ft 494 kts 349°
2026-04-14 15:48 16.30582 8.08762 36712 ft 494 kts 349°
2026-04-14 15:49 16.37427 8.08106 36725 ft 494 kts 349°
2026-04-14 15:49 16.44275 8.07454 36761 ft 494 kts 349°
2026-04-14 15:50 16.51119 8.06822 36795 ft 494 kts 349°
2026-04-14 15:50 16.57980 8.06212 36771 ft 495 kts 350°
2026-04-14 15:51 16.64864 8.05650 36747 ft 497 kts 350°
2026-04-14 15:51 16.71760 8.05134 36793 ft 497 kts 351°
2026-04-14 15:52 16.78651 8.04656 36846 ft 496 kts 351°
2026-04-14 15:52 16.85561 8.04212 36810 ft 498 kts 351°
2026-04-14 15:53 16.92483 8.03830 36878 ft 499 kts 351°
2026-04-14 15:53 16.99433 8.03545 36908 ft 500 kts 352°
2026-04-14 15:54 17.09878 8.03257 36920 ft 501 kts 353°
2026-04-14 15:55 17.16847 8.03135 36909 ft 501 kts 353°
2026-04-14 15:55 17.23825 8.03064 36931 ft 502 kts 353°
2026-04-14 15:56 17.30825 8.03056 36823 ft 505 kts 353°
2026-04-14 15:56 17.37862 8.03061 36756 ft 506 kts 354°
2026-04-14 15:57 17.44893 8.03076 36864 ft 504 kts 354°
2026-04-14 15:57 17.51858 8.03097 36925 ft 504 kts 354°
2026-04-14 15:58 17.57739 8.03111 36879 ft 506 kts 354°
2026-04-14 15:58 17.65947 8.03182 36813 ft 509 kts 354°
2026-04-14 15:59 17.71887 8.03349 36842 ft 509 kts 355°
2026-04-14 15:59 17.78964 8.03659 36907 ft 509 kts 356°
2026-04-14 16:00 17.86058 8.04194 36864 ft 513 kts 359°
2026-04-14 16:00 17.93168 8.05057 36842 ft 517 kts
2026-04-14 16:01 18.00277 8.06323 36865 ft 519 kts
2026-04-14 16:01 18.07345 8.07888 36910 ft 520 kts
2026-04-14 16:02 18.14403 8.09669 36903 ft 522 kts
2026-04-14 16:02 18.21433 8.11587 36896 ft 523 kts
2026-04-14 16:03 18.28420 8.13624 36943 ft 524 kts
2026-04-14 16:03 18.35428 8.15827 36881 ft 527 kts
2026-04-14 16:04 18.42472 8.18155 36846 ft 528 kts 10°
2026-04-14 16:04 18.49419 8.20528 36887 ft 527 kts 11°
2026-04-14 16:05 18.56372 8.22967 36904 ft 527 kts 11°
2026-04-14 16:05 18.63328 8.25464 36888 ft 529 kts 12°
2026-04-14 16:06 18.70295 8.28026 36875 ft 530 kts 12°
2026-04-14 16:06 18.77248 8.30634 36914 ft 530 kts 12°
2026-04-14 16:07 18.84170 8.33302 36931 ft 530 kts 13°
2026-04-14 16:07 18.91091 8.36024 36937 ft 531 kts 13°
2026-04-14 16:08 18.97990 8.38805 37003 ft 530 kts 13°
2026-04-14 16:08 19.04865 8.41657 36996 ft 531 kts 14°
2026-04-14 16:09 19.11734 8.44583 36946 ft 533 kts 14°
2026-04-14 16:09 19.18587 8.47572 36954 ft 533 kts 15°
2026-04-14 16:10 19.25415 8.50640 36991 ft 533 kts 15°
2026-04-14 16:10 19.32225 8.53779 36968 ft 535 kts 16°
2026-04-14 16:11 19.38996 8.56968 36897 ft 537 kts 16°
2026-04-14 16:11 19.45793 8.60234 36950 ft 536 kts 17°
2026-04-14 16:12 19.52556 8.63546 36985 ft 536 kts 17°
2026-04-14 16:12 19.59310 8.66895 36990 ft 537 kts 17°
2026-04-14 16:13 19.66090 8.70308 36862 ft 541 kts 18°
2026-04-14 16:13 19.72868 8.73796 36844 ft 541 kts 18°
2026-04-14 16:14 19.79605 8.77341 36984 ft 539 kts 18°
2026-04-14 16:14 19.86294 8.80957 36964 ft 541 kts 19°
2026-04-14 16:15 19.92990 8.84649 36872 ft 543 kts 19°
2026-04-14 16:15 19.99691 8.88408 36784 ft 546 kts 20°
2026-04-14 16:16 20.06376 8.92238 36817 ft 545 kts 20°
2026-04-14 16:16 20.13018 8.96131 36889 ft 545 kts 21°
2026-04-14 16:17 20.19642 9.00102 36858 ft 547 kts 22°
2026-04-14 16:17 20.26243 9.04149 36818 ft 549 kts 22°
2026-04-14 16:18 20.32840 9.08286 36716 ft 552 kts 23°
2026-04-14 16:18 20.39413 9.12520 36766 ft 552 kts 24°
2026-04-14 16:19 20.45915 9.16841 36872 ft 550 kts 24°
2026-04-14 16:19 20.52382 9.21266 36802 ft 553 kts 25°
2026-04-14 16:20 20.58824 9.25798 36734 ft 557 kts 26°
2026-04-14 16:20 20.65255 9.30456 36648 ft 559 kts 27°
2026-04-14 16:21 20.70502 9.34369 36711 ft 559 kts 27°
2026-04-14 16:21 20.76071 9.38642 36790 ft 559 kts 28°
2026-04-14 16:22 20.82334 9.43592 36745 ft 561 kts 30°
2026-04-14 16:22 20.88556 9.48652 36730 ft 563 kts 30°
2026-04-14 16:23 20.94732 9.53836 36657 ft 566 kts 31°
2026-04-14 16:23 21.00865 9.59162 36614 ft 568 kts 32°
2026-04-14 16:24 21.06952 9.64633 36728 ft 567 kts 33°
2026-04-14 16:24 21.12879 9.70143 36750 ft 569 kts 34°
2026-04-14 16:25 21.18785 9.75816 36685 ft 572 kts 36°
2026-04-14 16:25 21.24613 9.81631 36718 ft 572 kts 37°
2026-04-14 16:26 21.30321 9.87582 36798 ft 572 kts 38°
2026-04-14 16:26 21.35917 9.93665 36816 ft 573 kts 40°
2026-04-14 16:27 21.41402 9.99867 36836 ft 566 kts 41°
2026-04-14 16:27 21.44006 10.02920 37279 ft 541 kts 42°
2026-04-14 16:27 21.46461 10.05869 37536 ft 521 kts 42°
2026-04-14 16:27 21.48832 10.08767 37122 ft 516 kts 43°
2026-04-14 16:28 21.51213 10.11704 36046 ft 527 kts 43°
2026-04-14 16:28 21.53643 10.14728 34841 ft 543 kts 43°
2026-04-14 16:28 21.56114 10.17837 34053 ft 548 kts 43°
2026-04-14 16:28 21.58541 10.20944 33866 ft 535 kts 44°
2026-04-14 16:29 21.60858 10.23962 34073 ft 513 kts 44°
2026-04-14 16:29 21.63068 10.26886 34192 ft 495 kts 44°
2026-04-14 16:29 21.65206 10.29743 33831 ft 490 kts 44°
2026-04-14 16:29 21.67353 10.32619 32942 ft 498 kts 44°
2026-04-14 16:30 21.69556 10.35550 31939 ft 508 kts 44°
2026-04-14 16:30 21.71806 10.38506 31256 ft 510 kts 44°
2026-04-14 16:30 21.74040 10.41414 31071 ft 498 kts 43°
2026-04-14 16:30 21.76211 10.44221 31114 ft 480 kts 43°
2026-04-14 16:31 21.78321 10.46935 31003 ft 467 kts 43°
2026-04-14 16:31 21.80413 10.49594 30578 ft 465 kts 42°
2026-04-14 16:31 21.82546 10.52242 29783 ft 473 kts 42°
2026-04-14 16:31 21.84760 10.54893 28845 ft 479 kts 41°
2026-04-14 16:32 21.86240 10.56605 28426 ft 479 kts 40°
2026-04-14 16:32 21.87291 10.57792 28267 ft 475 kts 40°